EW6927 Weather Reports


time (UTC)temp
C
wind
direction
speed
KPH
gust
KPH
rain 1hr
cm
rain 24hr
cm
rain mn
cm
humidity
%
barometer
mb
20191021131557 13 0.0 0.0 0.00 0.00 0.00 94 1016.7
20191021130049 13 0.0 0.0 0.00 0.00 0.00 95 1016.5
20191021124619 13 0.0 0.0 0.00 0.00 0.00 95 1016.3
20191021123058 13 0.0 0.0 0.00 0.00 0.00 95 1016.2
20191021121521 13 0.0 0.0 0.00 0.00 0.00 95 1016.1
20191021120025 13 0.0 0.0 0.00 0.00 0.00 95 1016.2
20191021114510 13 0.0 0.0 0.00 0.00 0.00 95 1016.1
20191021113005 13 0.0 0.0 0.00 0.00 0.00 95 1015.9
20191021111643 13 0.0 0.0 0.00 0.00 0.00 95 1015.7
20191021110235 12 0.0 0.0 0.00 0.00 0.00 94 1015.5
20191021104655 12 0.0 0.0 0.00 0.00 0.00 93 1015.6
20191021103128 12 0.0 0.0 0.00 0.00 0.00 93 1015.5
20191021101611 12 0.0 0.0 0.00 0.00 0.00 93 1015.2
20191021100302 13 0.0 0.0 0.00 0.00 0.00 92 1015.0
20191021094600 13 0.0 0.0 0.00 0.00 0.00 91 1015.0
20191021093030 13 0.0 0.0 0.00 0.00 0.00 92 1015.1
20191021091556 13 0.0 0.0 0.00 0.00 0.00 92 1015.0
20191021090052 13 0.0 0.0 0.00 0.00 0.00 91 1015.1
20191021084526 13 0.0 0.0 0.00 0.00 0.00 91 1015.0
20191021083030 14 0.0 0.0 0.00 0.00 0.00 91 1015.0
20191021081525 14 0.0 0.0 0.00 0.00 0.00 89 1015.2
20191021080004 15 0.0 0.0 0.00 0.00 0.00 89 1014.9
20191021074744 14 0.0 0.0 0.00 0.00 0.00 90 1014.9
20191021073122 13 0.0 0.0 0.00 0.00 0.00 91 1014.8
20191021071733 13 0.0 0.0 0.00 0.00 0.00 91 1014.8
20191021070059 13 0.0 0.0 0.00 0.00 0.00 92 1014.8
20191021064622 13 0.0 0.0 0.00 0.00 0.00 92 1014.8
20191021063100 13 0.0 0.0 0.00 0.00 0.00 91 1014.8
20191021061656 13 0.0 0.0 0.00 0.00 0.00 92 1015.1
20191021060125 13 0.0 0.0 0.00 0.00 0.00 93 1014.9
20191021054543 13 0.0 0.0 0.00 0.00 0.00 92 1014.9
20191021053031 13 0.0 0.0 0.00 0.00 0.00 93 1014.8
20191021051516 13 0.0 0.0 0.00 0.00 0.00 93 1014.7
20191021050028 13 0.0 0.0 0.00 0.00 0.00 93 1014.6
20191021044509 13 0.0 0.0 0.00 0.00 0.00 92 1014.7
20191021043002 13 0.0 0.0 0.00 0.00 0.00 92 1014.6
20191021041822 13 0.0 0.0 0.00 0.00 0.00 92 1014.7
20191021040156 13 0.0 0.0 0.00 0.00 0.00 92 1014.8
20191021034742 13 0.0 0.0 0.00 0.00 0.00 91 1014.8
20191021033140 13 0.0 0.0 0.00 0.00 0.00 91 1014.8
20191021031624 13 0.0 0.0 0.00 0.00 0.00 91 1014.8
20191021030103 13 0.0 0.0 0.00 0.00 0.00 91 1014.7
20191021024601 13 0.0 0.0 0.00 0.00 0.00 91 1014.5
20191021023124 14 0.0 0.0 0.00 0.00 0.00 90 1014.4
20191021021532 14 0.0 0.0 0.00 0.00 0.00 90 1014.3
20191021020039 14 0.0 0.0 0.00 0.00 0.00 89 1014.1
20191021014523 14 0.0 0.0 0.00 0.00 0.00 89 1013.9
20191021013009 14 0.0 0.0 0.00 0.00 0.00 89 1013.9
20191021011541 15 0.0 0.0 0.00 0.00 0.00 88 1013.7
20191021010159 15 0.0 0.0 0.00 0.00 0.00 87 1013.7
20191021004715 15 0.0 0.0 0.00 0.00 0.00 87 1013.6
20191021003218 15 0.0 0.0 0.00 0.00 0.00 88 1013.4
20191021001648 15 0.0 0.0 0.00 0.00 0.00 87 1013.3
20191021000112 15 0.0 0.0 0.00 0.00 0.00 87 1013.2
20191020234620 15 0.0 0.0 0.00 0.00 0.00 86 1012.9
20191020233124 16 0.0 0.0 0.00 0.00 0.00 86 1012.7
20191020231626 16 0.0 0.0 0.00 0.00 0.00 86 1012.5
20191020230033 16 0.0 0.0 0.00 0.00 0.00 85 1012.4
20191020224631 17 0.0 0.0 0.00 0.00 0.00 83 1012.2
20191020223114 17 0.0 0.0 0.00 0.00 0.00 82 1011.9
20191020221521 18 0.0 0.0 0.00 0.00 0.00 81 1011.9
20191020220022 18 0.0 0.0 0.00 0.00 0.00 81 1011.7
20191020214547 19 0.0 0.0 0.00 0.00 0.00 80 1011.4
20191020213235 20 0.0 0.0 0.00 0.00 0.00 77 1011.2
20191020211751 20 0.0 0.0 0.00 0.00 0.00 77 1011.1
20191020210152 20 0.0 0.0 0.00 0.00 0.00 75 1011.0
20191020204605 21 0.0 0.0 0.00 0.00 0.00 71 1010.8
20191020203055 21 0.0 0.0 0.00 0.00 0.00 72 1010.7
20191020201727 21 0.0 0.0 0.00 0.00 0.00 72 1010.5
20191020200118 21 0.0 0.0 0.00 0.00 0.00 73 1010.6
20191020194632 20 0.0 0.0 0.00 0.00 0.00 74 1010.4
20191020193130 20 0.0 0.0 0.00 0.00 0.00 74 1010.4
20191020191538 20 0.0 0.0 0.00 0.00 0.00 74 1010.2
20191020190037 20 0.0 0.0 0.00 0.00 0.00 75 1010.1
20191020184526 19 0.0 0.0 0.00 0.00 0.00 77 1010.2
20191020183048 18 0.0 0.0 0.00 0.00 0.00 79 1010.2
20191020181505 18 0.0 0.0 0.00 0.00 0.00 78 1010.2
20191020180249 18 0.0 0.0 0.00 0.00 0.00 78 1010.3
20191020174810 18 0.0 0.0 0.00 0.00 0.00 81 1010.3
20191020173147 18 0.0 0.0 0.00 0.00 0.00 79 1010.4
20191020171622 17 0.0 0.0 0.00 0.00 0.00 79 1010.3
20191020170150 17 0.0 0.0 0.00 0.00 0.00 84 1010.4
20191020164639 16 0.0 0.0 0.00 0.00 0.00 85 1010.2
20191020163054 16 0.0 0.0 0.00 0.00 0.00 89 1010.1
20191020161552 15 0.0 0.0 0.00 0.00 0.00 98 1010.3
20191020160125 14 0.0 0.0 0.00 0.00 0.00 98 1010.2
20191020154616 14 0.0 0.0 0.00 0.00 0.00 99 1010.3
20191020153021 13 0.0 0.0 0.00 0.00 0.00 98 1010.1
20191020151512 13 0.0 0.0 0.00 0.00 0.00 99 1010.1
20191020150010 12 0.0 0.0 0.00 0.00 0.00 99 1009.9
20191020144505 12 0.0 0.0 0.00 0.00 0.00 98 1009.6
20191020143216 12 0.0 0.0 0.00 0.00 0.00 98 1009.6
20191020141627 11 0.0 0.0 0.00 0.00 0.00 98 1009.6
20191020140113 11 0.0 0.0 0.00 0.00 0.00 98 1009.2
20191020134612 11 0.0 0.0 0.00 0.00 0.00 98 1009.1
20191020133120 11 0.0 0.0 0.00 0.00 0.00 98 1008.9